Regional Weather Roundup
Issued by NWS

Home | Current Version | Previous Version | Graphics & Text | Print | Product List | Glossary On
Versions: 1 2 3 4 5 6 7 8 9 10 11 12 13 14 15 16 17 18 19 20 21 22 23 24 25 26 27 28 29 30 31 32 33 34 35 36 37 38 39 40 41 42 43 44 45 46 47 48 49 50
000
ASUS43 KLMK 121002
RWRKY
KENTUCKY REGIONAL WEATHER ROUNDUP
NATIONAL WEATHER SERVICE LOUISVILLE KY
600 AM EDT SAT JUL 12 2014

NOTE "FAIR" INDICATES FEW OR NO CLOUDS BELOW 12,000 FEET
WITH NO SIGNIFICANT WEATHER AND/OR OBSTRUCTIONS TO VISIBILITY.

KYZ001>023-026-027-061>063-070>075-121100-
WESTERN AND SOUTH CENTRAL KENTUCKY

CITY           SKY/WX    TMP DP  RH WIND       PRES   REMARKS
PADUCAH        PTCLDY    70  66  87 CALM      30.13S
HENDERSON      CLOUDY    70  66  88 CALM      30.12F
OWENSBORO      MOCLDY    71  67  87 SE6       30.14F
HOPKINSVILLE   CLEAR     69  68  99 CALM      30.15S
BOWLING GREEN  MOCLDY    65  62  90 CALM      30.16S
GLASGOW        NOT AVBL
$$

KYZ024-025-028>034-038-045-046-053-121100-
NORTH CENTRAL KENTUCKY

CITY           SKY/WX    TMP DP  RH WIND       PRES   REMARKS
LOUISVILLE/SDF MOCLDY    69  62  78 CALM      30.16S
LOUISVILLE/LOU PTCLDY    67  61  81 CALM      30.17S
FORT KNOX      CLOUDY    64  64  97 CALM      30.16S
$$

KYZ035>037-039>044-047>052-055>060-089>105-121100-
NORTHEAST KENTUCKY

CITY           SKY/WX    TMP DP  RH WIND       PRES   REMARKS
LEXINGTON      CLEAR     64  60  87 S3        30.19R
COVINGTON      MOCLDY    61  58  90 CALM      30.17S
FRANKFORT        N/A     61  60  97 CALM      30.17S
$$

KYZ054-064>069-076>088-106>120-121100-
SOUTHEAST KENTUCKY

CITY           SKY/WX    TMP DP  RH WIND       PRES   REMARKS
JACKSON        PTCLDY    67  60  78 CALM      30.21R
LONDON         CLEAR     63  59  87 CALM      30.21R
SOMERSET       CLEAR     61  61 100 CALM      30.20F
MIDDLESBORO    CLEAR     61  60  97 CALM      30.23R
MONTICELLO     SUNNY     58  57  96 CALM      30.21R FOG
$$




USA.gov is the U.S. government's official web portal to all federal, state and local government web resources and services.